EW6511 Weather Reports


Display with metric or nautical units.
time (UTC)temp
F
wind
direction
speed
MPH
gust
MPH
rain 1hr
in
rain 24hr
in
rain mn
in
humidity
%
barometer
mb
20260503203515 55 228 2.0 4.0 0.00 0.01 0.01 59 1017.7
20260503202517 55 243 1.0 3.0 0.00 0.01 0.01 58 1017.6
20260503201515 55 255 3.0 9.0 0.00 0.01 0.01 58 1017.4
20260503200515 55 279 4.0 10.0 0.00 0.01 0.01 56 1017.1
20260503195513 55 279 4.0 9.0 0.00 0.01 0.01 56 1016.9
20260503194511 55 116 4.0 7.0 0.00 0.01 0.01 57 1016.6
20260503193509 56 96 2.0 6.0 0.00 0.01 0.01 56 1016.5
20260503192511 55 96 7.0 8.0 0.00 0.01 0.01 57 1016.5
20260503191511 55 109 7.0 9.0 0.00 0.01 0.01 59 1016.6
20260503190510 56 109 2.0 7.0 0.00 0.01 0.01 54 1016.9
20260503185510 57 265 2.0 4.0 0.00 0.01 0.01 52 1017.2
20260503184510 57 265 2.0 4.0 0.00 0.01 0.01 51 1017.2
20260503183510 58 265 2.0 4.0 0.00 0.01 0.01 50 1017.2
20260503182516 58 264 2.0 3.0 0.00 0.01 0.01 49 1017.2
20260503181510 58 264 2.0 6.0 0.00 0.01 0.01 49 1017.1
20260503180514 58 264 4.0 8.0 0.00 0.01 0.01 49 1017.1
20260503174509 59 5 0.0 2.0 0.00 0.01 0.01 49 1017.1
20260503173509 59 204 1.0 2.0 0.00 0.01 0.01 47 1017.1
20260503172517 59 204 2.0 5.0 0.00 0.01 0.01 46 1017.0
20260503171511 59 216 4.0 9.0 0.00 0.01 0.01 46 1017.1
20260503170510 60 250 7.0 14.0 0.00 0.01 0.01 46 1017.2
20260503150457 61 205 2.0 5.0 0.00 0.01 0.01 52 1017.4
20260503130452 65 229 6.0 11.0 0.00 0.00 0.00 40 1017.2
20260503081424 61 29 2.0 5.0 0.00 0.00 0.00 54 1018.2
20260503080421 60 32 0.0 1.0 0.00 0.00 0.00 46 1018.2
20260503072415 59 17 1.0 4.0 0.00 0.00 0.00 59 1018.4
20260503071414 59 274 0.0 0.0 0.00 0.00 0.00 58 1018.7
20260503070414 58 277 0.0 1.0 0.00 0.00 0.00 60 1018.8
20260503054409 52 317 1.0 2.0 0.00 0.00 0.00 66 1018.6
20260503053409 52 317 0.0 2.0 0.00 0.00 0.00 65 1018.7
20260503052409 52 317 0.0 0.0 0.00 0.00 0.00 63 1018.6
20260503050409 53 315 1.0 3.0 0.00 0.00 0.00 61 1018.3
20260503045409 53 315 0.0 1.0 0.00 0.00 0.00 62 1018.3
20260503044403 53 315 1.0 2.0 0.00 0.00 0.00 62 1018.3
20260503043403 53 315 1.0 4.0 0.00 0.00 0.00 63 1018.4
20260503042403 52 315 0.0 3.0 0.00 0.00 0.00 63 1018.4
20260503041403 52 315 0.0 0.0 0.00 0.00 0.00 63 1018.5
20260503040403 52 315 1.0 3.0 0.00 0.00 0.00 64 1018.5
20260503034402 51 138 1.0 2.0 0.00 0.00 0.00 65 1018.5
20260503033403 51 138 3.0 4.0 0.00 0.00 0.00 65 1018.5
20260503032404 51 138 1.0 4.0 0.00 0.00 0.00 63 1018.5
20260503031357 52 138 2.0 4.0 0.00 0.00 0.00 63 1018.5
20260503030358 52 134 2.0 4.0 0.00 0.00 0.00 63 1018.5
20260503025356 52 61 1.0 3.0 0.00 0.00 0.00 62 1018.5
20260503024358 52 74 1.0 3.0 0.00 0.00 0.00 62 1018.5
20260503023356 52 147 1.0 4.0 0.00 0.00 0.00 62 1018.6
20260503022357 52 148 0.0 2.0 0.00 0.00 0.00 61 1018.6
20260503021354 52 148 2.0 3.0 0.00 0.00 0.00 61 1018.6
20260503020354 53 148 1.0 2.0 0.00 0.00 0.00 59 1018.7
20260503015353 53 148 1.0 3.0 0.00 0.00 0.00 59 1018.6
20260503014347 52 148 2.0 3.0 0.00 0.00 0.00 61 1018.7
20260503013347 52 148 1.0 5.0 0.00 0.00 0.00 60 1018.7
20260503012346 53 148 3.0 6.0 0.00 0.00 0.00 59 1018.6
20260503010344 53 217 1.0 2.0 0.00 0.00 0.00 59 1018.9
20260503005343 53 217 1.0 3.0 0.00 0.00 0.00 59 1019.0
20260503003340 54 219 0.0 0.0 0.00 0.00 0.00 57 1019.3
20260503002338 55 219 0.0 1.0 0.00 0.00 0.00 55 1019.4
20260503001337 55 219 0.0 0.0 0.00 0.00 0.00 55 1019.4
20260503000339 56 217 0.0 2.0 0.00 0.00 0.00 54 1019.5
20260502235337 56 217 1.0 2.0 0.00 0.00 0.00 53 1019.5
20260502234342 57 217 0.0 0.0 0.00 0.00 0.00 51 1019.6
20260502232338 58 217 0.0 0.0 0.00 0.00 0.00 50 1019.8
20260502231339 58 217 0.0 0.0 0.00 0.00 0.00 49 1019.8
20260502225337 59 217 2.0 5.0 0.00 0.00 0.00 47 1019.8
20260502224339 59 221 2.0 4.0 0.00 0.00 0.00 47 1019.8
20260502223337 59 199 2.0 3.0 0.00 0.00 0.00 47 1019.8
20260502222339 59 194 2.0 3.0 0.00 0.00 0.00 48 1019.8
20260502221338 58 194 2.0 3.0 0.00 0.00 0.00 49 1019.9
20260502220333 58 194 1.0 3.0 0.00 0.00 0.00 49 1019.9
20260502214330 59 199 1.0 3.0 0.00 0.00 0.00 48 1019.8
20260502213330 60 200 2.0 4.0 0.00 0.00 0.00 47 1019.8
20260502212330 59 234 2.0 4.0 0.00 0.00 0.00 46 1019.9
20260502205330 59 240 0.0 0.0 0.00 0.00 0.00 49 1019.9